Weather Roundup
Issued by NWS

Home | Current Version | Previous Version | Text Only | Print | Product List | Glossary On
Versions: 1 2 3 4 5 6 7 8 9 10 11 12 13 14 15 16 17 18 19 20 21 22 23 24 25 26 27 28 29 30 31 32 33 34 35 36 37 38 39 40 41 42 43 44 45 46 47 48 49 50
000
NZUS93 KARX 042310
HRRWXR

CURRENT HOURLY OBSERVATIONS ACROSS
MUCH OF THE UPPER MISSISSIPPI VALLEY
NATIONAL WEATHER SERVICE LA CROSSE WI
500 PM CST WED MAR 04 2015


...SOUTHEAST MINNESOTA...


CITY           SKY/WX    TMP DP  RH WIND       PRES   REMARKS
ROCHESTER      NOT AVBL
ROCHESTER/MAYO NOT AVBL
WINONA         PTCLDY    14  -2  48 NW16G22   30.27R WCI  -2
AUSTIN         LGT SNOW  10   3  72 NW16      30.23S WCI  -7
ALBERT LEA     NOT AVBL
DODGE CENTER   PTSUNNY   10   0  61 NW15      30.22R WCI  -6
PRESTON        PTCLDY     9  -1  62 NW14      30.23R WCI  -7
OWATONNA       MOSUNNY   10  -2  56 W24       30.25R WCI -10
FARIBAULT      SUNNY      9  -4  56 W20G25    30.27R WCI -11
$$

...ELSEWHERE IN MINNESOTA...


CITY           SKY/WX    TMP DP  RH WIND       PRES   REMARKS
MINNEAPOLIS    NOT AVBL
INTNL FALLS    NOT AVBL
DULUTH         NOT AVBL
RED WING       NOT AVBL
REDWOOD FALLS  NOT AVBL
MANKATO        PTSUNNY    9  -2  61 NW16G26   30.29R WCI  -9
FAIRMONT       CLOUDY    10  -2  56 NW20      30.27R WCI  -8
$$

...SOUTHWEST WISCONSIN...


CITY           SKY/WX    TMP DP  RH WIND       PRES   REMARKS
LA CROSSE      NOT AVBL
PRAIRIE DU CHI CLEAR     14  -3  45 W16       30.27R WCI  -2
BOSCOBEL       NOT AVBL
LONE ROCK      NOT AVBL
PLATTEVILLE    CLEAR     14   0  53 W15       30.21R WCI  -2
FORT MC COY    MOCLDY    14  -4  44 W9        30.22R WCI   2
CAMP DOUGLAS   PTCLDY    14  -4  44 W15       30.18R WCI  -1
VIROQUA        FAIR      12  -4  49 W15G22    30.18S WCI  -4
WIS DELLS      NOT AVBL
$$

...ELSEWHERE IN WISCONSIN...


CITY           SKY/WX    TMP DP  RH WIND       PRES   REMARKS
MILWAUKEE      NOT AVBL
MADISON        NOT AVBL
GREEN BAY      NOT AVBL
EAU CLAIRE     NOT AVBL
BLACK RVR FLS  FAIR      14  -8  37 W14G20    30.21R WCI  -1
MEDFORD        CLEAR      7 -11  43 W13G23    30.10R WCI  -9
WAUSAU         NOT AVBL
WIS RAPIDS     NOT AVBL
MARSHFIELD     NOT AVBL
RICE LAKE      PTCLDY     7 -11  43 W14       30.21R WCI  -9
$$

...NORTHEAST IOWA...


CITY           SKY/WX    TMP DP  RH WIND       PRES   REMARKS
DECORAH        MOCLDY    12   0  57 NW12      30.22S WCI  -2
MASON CITY     PTSUNNY   13   3  64 NW12      30.27R WCI  -1
CHARLES CITY   PTSUNNY   12   3  67 W12       30.25S WCI  -2
OELWEIN        PTSUNNY   12   1  62 NW14      30.25S WCI  -3
$$

...ELSEWHERE IN IOWA...


CITY           SKY/WX    TMP DP  RH WIND       PRES   REMARKS
DES MOINES     NOT AVBL
IOWA CITY      NOT AVBL
FORT DODGE     PTSUNNY   18   7  62 N12       30.28R WCI   5
$$

...NORTHERN ILLINOIS...


CITY           SKY/WX    TMP DP  RH WIND       PRES   REMARKS
CHICAGO-OHARE  MOCLDY    19   1  45 NW14      30.18S WCI   6
CHICAGO-MIDWAY NOT AVBL
MOLINE         NOT AVBL
ROCKFORD       NOT AVBL
PEORIA         NOT AVBL
$$

NOTE: "FAIR" INDICATES FEW OR NO CLOUDS BELOW 12,000 FEET WITH NO
SIGNIFICANT WEATHER AND/OR OBSTRUCTIONS TO VISIBILITY. WIND
SPEEDS ARE IN MILES-PER-HOUR.



USA.gov is the U.S. government's official web portal to all federal, state and local government web resources and services.